Tracking 30743 objects as of 22-Jun-2025
HD Live streaming from Space Station
objects crossing your sky now

SL-8 DEB

Track SL-8 DEB now!
10-day predictions


NORAD ID: 22841
Int'l Code: 1991-009CL
Perigee: 1,483.3 km
Apogee: 1,690.3 km
Inclination: 74.0 °
Period: 117.7 minutes
Semi major axis: 7957 km
RCS: 0.0241 m2 (small)
Launch date: February 12, 1991
Source: Commonwealth of Independent States (former USSR) (CIS)
Launch site: PLESETSK MISSILE AND SPACE COMPLEX (PKMTR)

Note: This is SATELLITE DEBRIS
Your satellite tracking list
Your tracking list is empty




NASA's NSSDC Master Catalog

Two Line Element Set (TLE):
1 22841U 91009CL  25172.02973608 -.00000003  00000-0  10686-3 0  9996
2 22841  74.0404 196.2453 0130078 329.2510  54.4768 12.22969690530579
Source of the keplerian elements: AFSPC